Regional Weather Roundup
Issued by NWS

Home | Current Version | Previous Version | Graphics & Text | Print | Product List | Glossary On
Versions: 1 2 3 4 5 6 7 8 9 10 11 12 13 14 15 16 17 18 19 20 21 22 23 24 25 26 27 28 29 30 31 32 33 34 35 36 37 38 39 40 41 42 43 44 45 46 47 48 49 50
000
ASUS43 KIND 291709
RWRIN

WEATHER ROUNDUP FOR INDIANA
NATIONAL WEATHER SERVICE INDIANAPOLIS IN
100 PM EDT FRI APR 29 2016

NOTE: "FAIR" INDICATES FEW OR NO CLOUDS BELOW 12,000 FEET WITH NO
SIGNIFICANT WEATHER AND/OR OBSTRUCTIONS TO VISIBILITY.

* - STATION DOES NOT REPORT WEATHER SUCH AS PRECIPITATION OR FOG.

+ - STATION NOT QUALITY CONTROLLED BY THE NATIONAL WEATHER SERVICE.
    USE DATA WITH CAUTION...ESPECIALLY DEWPOINT AND RELATIVE
    HUMIDITY OBSERVATIONS.

INZ001>003-010>013-019-020-291800-
NORTHWEST INDIANA

CITY           SKY/WX    TMP DP  RH WIND       PRES   REMARKS
GARY /AIRPORT/ PTSUNNY   48  46  93 N12G23    30.10S FOG
KNOX *+        CLOUDY    50  37  62 N6        30.07S
LA PORTE +     CLOUDY    49  48  97 N10       30.08S FOG
MICHIGAN CITY+ FOG       43  43 100 N7        30.09S VSB 1/2
MONTICELLO +   CLOUDY    52  44  73 NW9       30.08R
RENSSELAER +   CLOUDY    46  45  93 N8        30.10R FOG
VALPARAISO     CLOUDY    48  42  80 VRB7      30.09R

$$

LMZ046-743>745-291800-
SOUTHERN LAKE MICHIGAN

STATION/POSITION TIME  TEMP    WIND        PRES    WAVE
                       AIR SEA DIR/SP/G            HT
                 (UTC) (F)     (DEG/KT/KT) (MB)    (FT)
BURNS HARBOR     1618   42     350/ 11/ 15 1019.6F
MICHIGAN CITY    1600   42     310/ 15/ 16   N/A

$$

INZ004-005-014>016-021>024-291800-
NORTH CENTRAL INDIANA

CITY           SKY/WX    TMP DP  RH WIND       PRES   REMARKS
ELKHART        CLOUDY    50  46  87 CALM      30.06F
GOSHEN         CLOUDY    50  44  80 NE6       30.06S
LOGANSPORT +   CLOUDY    52  46  82 N6        30.08R
ROCHESTER +    CLOUDY    54  46  76 NW6       30.06F
SOUTH BEND     CLOUDY    49  45  86 N5        30.06F
WARSAW +       CLOUDY    50  45  81 CALM      30.06S

$$

INZ006>009-017-018-025>027-291800-
NORTHEAST INDIANA

CITY           SKY/WX    TMP DP  RH WIND       PRES   REMARKS
ANGOLA *+      CLOUDY    48  41  76 NE5       30.06S
AUBURN +       CLOUDY    50  41  71 CALM      30.06F
FORT WAYNE     CLOUDY    50  44  80 CALM      30.07S
HUNTINGTON +   CLOUDY   N/A N/A N/A N5        30.05F

$$

INZ028-029-035-036-043>045-051>053-291800-
WEST CENTRAL INDIANA

CITY           SKY/WX    TMP DP  RH WIND       PRES   REMARKS
CRAWFORDSVL +  CLOUDY    54  49  83 NW6       30.09R
GREENCASTLE +  PTSUNNY   57  50  77 N7        30.08R
LAFAYETTE      CLOUDY    53  46  77 N6        30.09R
TERRE HAUTE    CLOUDY    61  48  62 CALM      30.07R

$$

INZ030>032-037>040-046>048-054>057-064-065-291800-
CENTRAL INDIANA

CITY           SKY/WX    TMP DP  RH WIND       PRES   REMARKS
ANDERSON       PTSUNNY   57  48  72 W9        30.07S
CP ATTERBURY + PTSUNNY   63  46  55 NW6       30.06S
COLUMBUS       SUNNY     63  52  67 SW10      30.06S
FISHERS *+     PTSUNNY   57  50  77 NW7       30.07R
FRANKFORT +      N/A     54  40  58 CALM      30.10R HAZE
GREENWOOD *+   MOSUNNY   61  48  63 NW7       30.07R
INDIANAPOLIS   PTSUNNY   60  47  61 NW9       30.06R
-EAGLE CREEK   PTSUNNY   60  48  64 N12       30.06R
KOKOMO *+      CLOUDY    55  46  71 N9        30.06R
MARION +       CLOUDY    54  47  78 N6        30.06S
SHELBYVILLE    PTSUNNY   64  47  53 NW7       30.05S
ZIONSVILLE +   CLOUDY    55  47  75 N7        30.08R

$$

INZ033-034-041-042-049-050-058-059-291800-
EAST CENTRAL INDIANA

CITY           SKY/WX    TMP DP  RH WIND       PRES   REMARKS
MUNCIE         CLOUDY    58  48  69 NW12      30.05S

$$

INZ060-061-067>069-081>083-085>088-291800-
SOUTHWEST INDIANA

CITY           SKY/WX    TMP DP  RH WIND       PRES   REMARKS
EVANSVILLE     CLOUDY    64  48  56 CALM      30.07R
HUNTINGBURG *+ CLOUDY    64  50  59 NE6       30.06R
WASHINGTON +   CLOUDY    63  51  64 NE6       30.05F

$$

INZ062-063-066-070>080-084-089>092-291800-
SOUTH CENTRAL AND SOUTHEAST INDIANA

CITY           SKY/WX    TMP DP  RH WIND       PRES   REMARKS
BEDFORD +      MOSUNNY   64  57  77 N8        30.05F
BLOOMINGTON    CLOUDY    64  47  53 CALM      30.06R
MADISON *+     MOSUNNY   66  45  45 NW7       30.06F
NORTH VERNON + MOSUNNY   64  55  72 CALM      30.06S
SEYMOUR +      MOSUNNY   66  48  52 SW3       30.05S

$$





USA.gov is the U.S. government's official web portal to all federal, state and local government web resources and services.